Location: Gallinara
(44.0333°N, 8.2333°E)
Time: 17:31:51
(UTC+00:00)

Cosmos 44 Rocket - Pass Details

Date: 25 September 2020
Orbit: 644 x 746 km, 65.1° (Epoch: 29 October)

Event Time Altitude Azimuth Distance (km) Brightness Sun altitude
Exits shadow 03:44:49 32° 239° (WSW) 1,143 3.9 -17.4°
Maximum altitude 03:46:52 61° 307° (NW) 764 3.3 -17.0°
Drops below altitude 10° 03:51:41 10° 29° (NNE) 2,144 6.4 -16.2°
Sets 03:54:06 0° 32° (NNE) 3,082 7.4 -15.8°
